|
Gurwin Techsat 1B - Orbit
|
Summit Observatory;
07:28:07
| Home | Info | Passes |
|
View from above orbital plane
|
View from above satellite
|
Ground track
|
The orbit data is extracted from the following two-line orbital elements,
1 25397U 98043D 13144.78205396 .00000077 00000-0 52051-4 0 782
2 25397 098.4125 113.5610 0001658 052.9871 013.0416 14.23341159772617
| Epoch (UTC): | 24 May 2013 18:46:09 |
| Eccentricity: | 0.0001658 |
| inclination: | 98.4125° |
| perigee height: | 813 km |
| apogee height: | 815 km |
| right ascension of ascending node: | 113.5610° |
| argument of perigee: | 52.9871° |
| revolutions per day: | 14.23341159 |
| mean anomaly at epoch: | 13.0416° |
| orbit number at epoch: | 77261 |
The dashed part of the orbit path shows where the satellite is in the earth's shadow,
|
|